GW6389 Weather Reports


time (UTC)temp
F
wind
direction
speed
knots
gust
knots
rain 1hr
in
rain 24hr
in
rain mn
in
humidity
%
barometer
mb
20260504174030 53 327 13.0 21.7 0.00 0.00 0.00 35 1014.7
20260504173528 53 352 11.3 19.1 0.00 0.00 0.00 38 1014.6
20260504173213 53 296 9.6 19.1 0.00 0.00 0.00 38 1014.6
20260504172524 53 360 13.0 19.1 0.00 0.00 0.00 37 1014.5
20260504172020 53 340 11.3 18.2 0.00 0.00 0.00 38 1014.7
20260504171615 53 313 12.2 18.2 0.00 0.00 0.00 39 1014.6
20260504171021 53 344 11.3 18.2 0.00 0.00 0.00 39 1014.7
20260504170533 53 336 9.6 20.0 0.00 0.00 0.00 39 1014.6
20260504170215 53 290 13.0 20.0 0.00 0.00 0.00 38 1014.8
20260504160208 51 327 10.4 17.4 0.00 0.00 0.00 46 1014.8
20260504151015 50 319 11.3 17.4 0.00 0.00 0.00 54 1014.7
20260504150537 49 304 12.2 18.2 0.00 0.00 0.00 53 1014.9
20260504150201 50 306 12.2 18.2 0.00 0.00 0.00 54 1014.7
20260504141041 49 290 10.4 16.5 0.00 0.00 0.00 53 1014.8
20260504140513 50 311 9.6 13.9 0.00 0.00 0.00 54 1014.7
20260504140205 49 304 8.7 13.9 0.00 0.00 0.00 55 1014.6
20260504130533 46 280 4.3 7.8 0.00 0.00 0.00 56 1014.6
20260504130221 47 275 4.3 8.7 0.00 0.00 0.00 56 1014.7
20260504120253 46 281 6.1 8.7 0.00 0.00 0.00 59 1014.6
20260504110540 46 290 6.1 11.3 0.00 0.00 0.00 63 1014.8
20260504110211 46 286 7.0 11.3 0.00 0.00 0.00 62 1014.6
20260504100526 46 324 9.6 16.5 0.00 0.00 0.00 62 1014.4
20260504100150 46 339 10.4 14.8 0.00 0.00 0.00 62 1014.5
20260504081651 48 48 6.1 13.9 0.00 0.00 0.00 59 1014.2
20260504081031 48 360 6.1 14.8 0.00 0.00 0.00 58 1014.4
20260504080521 48 44 8.7 14.8 0.00 0.00 0.00 57 1014.2
20260504080209 49 19 8.7 13.9 0.00 0.00 0.00 56 1014.1
20260504070212 51 13 11.3 19.1 0.00 0.00 0.00 50 1012.9
20260504060209 54 55 7.8 15.6 0.00 0.00 0.00 38 1011.6
20260504050535 55 31 6.1 14.8 0.00 0.00 0.00 35 1010.5
20260504050119 56 31 7.8 17.4 0.00 0.00 0.00 35 1010.5
20260504045524 56 22 10.4 18.2 0.00 0.00 0.00 35 1010.2
20260504045040 56 36 7.8 19.1 0.00 0.00 0.00 35 1010.1
20260504044643 56 30 10.4 18.2 0.00 0.00 0.00 35 1010.0
20260504044023 56 60 9.6 20.0 0.00 0.00 0.00 35 1009.9
20260504043538 56 54 12.2 20.9 0.00 0.00 0.00 35 1009.7
20260504043142 56 43 12.2 24.3 0.00 0.00 0.00 35 1009.5
20260504042536 57 59 15.6 24.3 0.00 0.00 0.00 34 1009.2
20260504042040 57 49 13.0 20.0 0.00 0.00 0.00 35 1008.9
20260504041652 58 63 13.0 20.0 0.00 0.00 0.00 35 1008.8
20260504041039 59 34 10.4 19.1 0.00 0.00 0.00 36 1008.8
20260504040535 60 30 8.7 13.0 0.00 0.00 0.00 36 1008.3
20260504040135 59 360 3.5 9.6 0.00 0.00 0.00 37 1008.2
20260504035543 59 30 3.5 7.8 0.00 0.00 0.00 37 1008.0
20260504035026 60 15 3.5 8.7 0.00 0.00 0.00 36 1007.9
20260504034653 60 31 3.5 8.7 0.00 0.00 0.00 36 1007.8
20260504034024 60 31 3.5 8.7 0.00 0.00 0.00 35 1007.7
20260504033542 60 360 3.5 7.8 0.00 0.00 0.00 35 1007.8
20260504033059 61 49 3.5 8.7 0.00 0.00 0.00 34 1007.4
20260504032540 61 43 3.5 7.8 0.00 0.00 0.00 34 1007.4
20260504032021 61 31 3.5 10.4 0.00 0.00 0.00 34 1007.6
20260504031623 62 39 6.1 10.4 0.00 0.00 0.00 34 1007.4
20260504031037 62 38 7.0 10.4 0.00 0.00 0.00 33 1007.3
20260504030525 62 27 7.0 10.4 0.00 0.00 0.00 33 1007.3
20260504030135 62 360 5.2 10.4 0.00 0.00 0.00 33 1007.3
20260504025523 62 26 4.3 9.6 0.00 0.00 0.00 33 1007.3
20260504025022 63 38 5.2 10.4 0.00 0.00 0.00 32 1007.1
20260504024622 63 17 5.2 11.3 0.00 0.00 0.00 32 1007.0
20260504024044 64 15 6.1 12.2 0.00 0.00 0.00 31 1006.8
20260504023545 64 13 7.0 12.2 0.00 0.00 0.00 30 1006.9
20260504023148 64 360 6.1 11.3 0.00 0.00 0.00 30 1006.8
20260504022530 65 34 4.3 10.4 0.00 0.00 0.00 29 1006.8
20260504022042 66 46 5.2 13.0 0.00 0.00 0.00 28 1006.8
20260504021637 66 38 7.0 13.0 0.00 0.00 0.00 27 1006.7
20260504021031 67 28 6.1 11.3 0.00 0.00 0.00 27 1006.9
20260504020525 67 22 7.8 14.8 0.00 0.00 0.00 27 1006.7
20260504020159 68 28 7.8 14.8 0.00 0.00 0.00 26 1006.7
20260504015534 69 360 6.1 12.2 0.00 0.00 0.00 25 1006.7
20260504015024 69 360 7.8 12.2 0.00 0.00 0.00 25 1006.7
20260504014648 69 333 6.1 11.3 0.00 0.00 0.00 25 1006.7
20260504014043 70 40 6.1 11.3 0.00 0.00 0.00 25 1006.6
20260504013526 71 319 6.1 11.3 0.00 0.00 0.00 24 1006.5
20260504013153 71 331 7.8 12.2 0.00 0.00 0.00 23 1006.5
20260504012525 72 310 7.0 14.8 0.00 0.00 0.00 22 1006.6
20260504012026 72 324 7.0 13.0 0.00 0.00 0.00 22 1006.6
20260504011655 72 294 6.1 13.0 0.00 0.00 0.00 23 1006.6
20260504011026 72 319 7.8 13.0 0.00 0.00 0.00 23 1006.5
20260504010529 72 290 7.8 13.0 0.00 0.00 0.00 23 1006.7
20260504010202 72 300 9.6 13.0 0.00 0.00 0.00 22 1006.6
20260504005528 73 335 7.8 14.8 0.00 0.00 0.00 22 1006.7
20260504005026 73 306 8.7 15.6 0.00 0.00 0.00 23 1006.8
20260504004627 73 331 10.4 18.2 0.00 0.00 0.00 21 1006.9
20260504004037 73 319 8.7 18.2 0.00 0.00 0.00 22 1006.7
20260504003525 73 307 9.6 19.1 0.00 0.00 0.00 23 1006.9
20260504003149 73 298 11.3 19.1 0.00 0.00 0.00 22 1006.9
20260504002531 73 327 12.2 19.1 0.00 0.00 0.00 21 1006.9
20260504002027 73 321 9.6 16.5 0.00 0.00 0.00 22 1006.9
20260504001640 73 342 12.2 16.5 0.00 0.00 0.00 22 1006.9
20260504001022 73 311 11.3 16.5 0.00 0.00 0.00 21 1007.0
20260504000524 73 300 9.6 18.2 0.00 0.00 0.00 22 1007.1
20260504000158 73 309 11.3 18.2 0.00 0.00 0.00 22 1007.0
20260503235523 73 323 12.2 20.0 0.00 0.00 0.00 20 1006.9
20260503235028 74 328 12.2 18.2 0.00 0.00 0.00 20 1007.0
20260503234640 74 349 10.4 18.2 0.00 0.00 0.00 21 1006.9
20260503234027 73 323 11.3 18.2 0.00 0.00 0.00 22 1007.1
20260503233524 73 307 9.6 17.4 0.00 0.00 0.00 21 1007.0
20260503233128 74 311 8.7 17.4 0.00 0.00 0.00 22 1007.2
20260503232531 74 343 12.2 18.2 0.00 0.00 0.00 20 1007.0
20260503232027 74 307 12.2 20.9 0.00 0.00 0.00 22 1007.1
20260503231624 73 320 13.9 20.9 0.00 0.00 0.00 21 1006.9
20260503231023 73 317 12.2 20.0 0.00 0.00 0.00 21 1007.2
20260503230522 73 329 12.2 21.7 0.00 0.00 0.00 20 1007.2
20260503230131 74 360 10.4 20.0 0.00 0.00 0.00 21 1007.0
20260503225527 74 328 9.6 17.4 0.00 0.00 0.00 22 1007.3
20260503225028 73 278 13.0 17.4 0.00 0.00 0.00 20 1007.4
20260503224659 74 325 10.4 19.1 0.00 0.00 0.00 20 1007.4
20260503224030 74 307 11.3 19.1 0.00 0.00 0.00 20 1007.6
20260503223540 74 301 12.2 22.6 0.00 0.00 0.00 21 1007.5
20260503223155 74 314 11.3 22.6 0.00 0.00 0.00 20 1007.6
20260503222524 73 309 9.6 17.4 0.00 0.00 0.00 20 1007.6
20260503222026 73 352 7.8 14.8 0.00 0.00 0.00 20 1007.7
20260503221645 73 335 10.4 18.2 0.00 0.00 0.00 21 1007.6
20260503221034 74 318 10.4 18.2 0.00 0.00 0.00 22 1007.7
20260503220524 73 300 10.4 17.4 0.00 0.00 0.00 22 1007.7
20260503220145 73 287 10.4 16.5 0.00 0.00 0.00 21 1007.8
20260503215539 73 325 10.4 20.9 0.00 0.00 0.00 22 1007.9
20260503215033 73 317 13.0 20.9 0.00 0.00 0.00 20 1007.9
20260503214653 73 279 9.6 15.6 0.00 0.00 0.00 21 1007.8
20260503214027 73 290 9.6 14.8 0.00 0.00 0.00 23 1008.0
20260503213527 73 281 9.6 20.0 0.00 0.00 0.00 23 1008.0
20260503213140 73 301 12.2 20.0 0.00 0.00 0.00 23 1008.2
20260503212539 73 300 7.8 13.0 0.00 0.00 0.00 22 1008.1
20260503212029 74 338 8.7 15.6 0.00 0.00 0.00 22 1008.3
20260503211603 73 313 8.7 17.4 0.00 0.00 0.00 23 1008.2
20260503211040 73 302 12.2 18.2 0.00 0.00 0.00 20 1008.6
20260503210527 73 275 10.4 18.2 0.00 0.00 0.00 21 1008.6
20260503210211 72 315 9.6 24.3 0.00 0.00 0.00 22 1008.6
20260503205533 72 314 12.2 24.3 0.00 0.00 0.00 22 1008.7
20260503205039 72 325 12.2 20.9 0.00 0.00 0.00 20 1008.9
20260503204653 72 278 9.6 13.9 0.00 0.00 0.00 21 1008.9
20260503204023 72 310 8.7 14.8 0.00 0.00 0.00 21 1008.8
20260503203527 71 337 4.3 17.4 0.00 0.00 0.00 23 1008.8
20260503203210 71 279 10.4 17.4 0.00 0.00 0.00 23 1008.8
20260503202523 72 297 10.4 14.8 0.00 0.00 0.00 22 1009.1
20260503202037 71 292 8.7 16.5 0.00 0.00 0.00 22 1009.1
20260503201703 71 282 10.4 18.2 0.00 0.00 0.00 24 1009.3
20260503201026 72 309 12.2 18.2 0.00 0.00 0.00 22 1009.2
20260503200533 72 284 10.4 20.0 0.00 0.00 0.00 22 1009.3
20260503200204 71 272 7.8 20.0 0.00 0.00 0.00 21 1009.2
20260503195524 71 306 10.4 17.4 0.00 0.00 0.00 21 1009.4
20260503195024 72 319 10.4 19.1 0.00 0.00 0.00 21 1009.4
20260503194638 72 311 11.3 20.9 0.00 0.00 0.00 20 1009.4
20260503194028 72 307 13.9 20.9 0.00 0.00 0.00 19 1009.3
20260503193537 71 290 9.6 22.6 0.00 0.00 0.00 21 1009.5
20260503193119 71 314 13.0 22.6 0.00 0.00 0.00 20 1009.5
20260503192532 72 318 8.7 18.2 0.00 0.00 0.00 20 1009.5
20260503192029 72 288 8.7 20.9 0.00 0.00 0.00 20 1009.5
20260503191709 72 305 13.9 21.7 0.00 0.00 0.00 21 1009.6
20260503191040 72 288 11.3 18.2 0.00 0.00 0.00 20 1009.6
20260503190531 72 328 9.6 18.2 0.00 0.00 0.00 21 1009.9
20260503190209 72 348 10.4 18.2 0.00 0.00 0.00 21 1009.7
20260503185534 71 254 10.4 16.5 0.00 0.00 0.00 20 1009.8
20260503185019 71 296 10.4 16.5 0.00 0.00 0.00 23 1009.9
20260503184704 71 304 7.8 18.2 0.00 0.00 0.00 22 1010.0
20260503184023 71 297 13.0 18.2 0.00 0.00 0.00 22 1010.1
20260503183523 70 336 9.6 19.1 0.00 0.00 0.00 23 1010.1
20260503183149 71 288 11.3 19.1 0.00 0.00 0.00 22 1010.2
20260503182538 71 301 12.2 17.4 0.00 0.00 0.00 21 1010.3
20260503182028 71 325 9.6 13.9 0.00 0.00 0.00 21 1010.2
20260503181700 70 317 6.1 18.2 0.00 0.00 0.00 22 1010.4
20260503181025 71 311 12.2 18.2 0.00 0.00 0.00 23 1010.3
20260503180530 70 347 6.1 14.8 0.00 0.00 0.00 22 1010.6
20260503180210 71 333 10.4 15.6 0.00 0.00 0.00 22 1010.8
20260503175523 71 325 11.3 15.6 0.00 0.00 0.00 23 1011.0
20260503175029 71 298 11.3 15.6 0.00 0.00 0.00 23 1011.0
20260503174627 70 309 7.8 12.2 0.00 0.00 0.00 25 1010.9